EW7061 Weather Reports


Display with metric or nautical units.
time (UTC)temp
F
wind
direction
speed
MPH
gust
MPH
rain 1hr
in
rain 24hr
in
rain mn
in
humidity
%
barometer
mb
20190223164704 39 171 3.0 7.0 0.00 0.00 0.00 72 1030.2
20190223164204 39 136 3.0 7.0 0.00 0.00 0.00 71 1030.2
20190223163704 38 166 3.0 6.0 0.00 0.00 0.00 72 1030.5
20190223163204 39 170 2.0 7.0 0.00 0.00 0.00 73 1030.5
20190223162704 39 117 3.0 7.0 0.00 0.00 0.00 73 1030.4
20190223162204 38 114 4.0 7.0 0.00 0.00 0.00 74 1030.5
20190223161704 38 154 3.0 7.0 0.00 0.00 0.00 76 1030.7
20190223161205 39 129 3.0 8.0 0.00 0.00 0.00 72 1030.7
20190223160704 39 128 3.0 8.0 0.00 0.00 0.00 73 1030.7
20190223160204 39 107 3.0 8.0 0.00 0.00 0.00 73 1031.0
20190223155704 39 110 3.0 6.0 0.00 0.00 0.00 71 1030.9
20190223155205 39 154 2.0 6.0 0.00 0.00 0.00 71 1031.0
20190223154704 39 129 2.0 6.0 0.00 0.00 0.00 72 1031.1
20190223154204 39 165 2.0 5.0 0.00 0.00 0.00 71 1031.1
20190223153704 39 156 3.0 6.0 0.00 0.00 0.00 72 1031.2
20190223153204 39 121 2.0 6.0 0.00 0.00 0.00 70 1031.3
20190223152704 39 121 2.0 7.0 0.00 0.00 0.00 70 1031.3
20190223152204 39 188 2.0 7.0 0.00 0.00 0.00 71 1031.2
20190223151705 39 140 3.0 7.0 0.00 0.00 0.00 69 1031.3
20190223151204 39 96 3.0 6.0 0.00 0.00 0.00 69 1031.4
20190223150704 39 148 3.0 6.0 0.00 0.00 0.00 68 1031.4
20190223150204 39 152 2.0 4.0 0.00 0.00 0.00 68 1031.4
20190223145704 39 112 2.0 4.0 0.00 0.00 0.00 69 1031.3
20190223145204 39 125 2.0 3.0 0.00 0.00 0.00 67 1031.3
20190223144705 39 94 1.0 4.0 0.00 0.00 0.00 68 1031.4
20190223144205 39 46 1.0 4.0 0.00 0.00 0.00 69 1031.4
20190223143704 38 94 2.0 4.0 0.00 0.00 0.00 70 1031.4
20190223143204 38 88 2.0 5.0 0.00 0.00 0.00 70 1031.4
20190223142704 38 76 2.0 5.0 0.00 0.00 0.00 70 1031.4
20190223142204 38 34 2.0 5.0 0.00 0.00 0.00 72 1031.4
20190223141704 38 33 2.0 5.0 0.00 0.00 0.00 72 1031.4
20190223141204 38 344 2.0 5.0 0.00 0.00 0.00 72 1031.7
20190223140704 37 348 2.0 5.0 0.00 0.00 0.00 73 1031.7
20190223140204 37 333 2.0 4.0 0.00 0.00 0.00 73 1031.7
20190223135705 37 334 1.0 3.0 0.00 0.00 0.00 74 1031.7
20190223135204 37 355 1.0 3.0 0.00 0.00 0.00 76 1031.9
20190223134704 36 30 1.0 3.0 0.00 0.00 0.00 77 1031.9
20190223134204 36 17 1.0 3.0 0.00 0.00 0.00 78 1032.1
20190223133704 35 317 1.0 3.0 0.00 0.00 0.00 80 1032.0
20190223133204 35 303 1.0 3.0 0.00 0.00 0.00 81 1032.2
20190223132704 35 304 2.0 3.0 0.00 0.00 0.00 81 1032.1
20190223132205 35 324 1.0 3.0 0.00 0.00 0.00 83 1032.2
20190223131704 34 321 1.0 3.0 0.00 0.00 0.00 84 1032.1
20190223131204 34 319 1.0 3.0 0.00 0.00 0.00 85 1031.7
20190223130704 33 317 0.0 2.0 0.00 0.00 0.00 87 1031.8
20190223130204 33 317 1.0 3.0 0.00 0.00 0.00 88 1031.8
20190223125704 33 317 1.0 3.0 0.00 0.00 0.00 89 1031.9
20190223125204 32 317 1.0 2.0 0.00 0.00 0.00 90 1032.0
20190223124704 32 323 1.0 2.0 0.00 0.00 0.00 91 1031.8
20190223124204 31 323 1.0 2.0 0.00 0.00 0.00 91 1031.7
20190223123704 31 324 1.0 2.0 0.00 0.00 0.00 92 1031.7
20190223123204 30 330 1.0 2.0 0.00 0.00 0.00 92 1031.7
20190223122705 30 330 1.0 2.0 0.00 0.00 0.00 92 1031.7
20190223122204 30 330 0.0 2.0 0.00 0.00 0.00 92 1031.5
20190223121704 29 330 0.0 3.0 0.00 0.00 0.00 92 1031.4
20190223121204 29 330 1.0 3.0 0.00 0.00 0.00 92 1031.3
20190223120705 29 330 1.0 3.0 0.00 0.00 0.00 92 1031.5
20190223120205 29 330 1.0 1.0 0.00 0.00 0.00 92 1031.3
20190223115704 29 335 0.0 2.0 0.00 0.00 0.00 91 1031.3
20190223115205 28 335 0.0 2.0 0.00 0.00 0.00 91 1031.4
20190223114704 28 335 0.0 2.0 0.00 0.00 0.00 91 1031.3
20190223114204 28 335 0.0 0.0 0.00 0.00 0.00 91 1031.5
20190223113704 28 335 0.0 0.0 0.00 0.00 0.00 90 1031.5
20190223113205 28 335 0.0 0.0 0.00 0.00 0.00 90 1031.5
20190223112704 28 335 0.0 0.0 0.00 0.00 0.00 90 1031.3
20190223112204 28 335 0.0 0.0 0.00 0.00 0.00 90 1031.3
20190223111705 29 335 0.0 0.0 0.00 0.00 0.00 90 1031.2
20190223111204 29 335 0.0 0.0 0.00 0.00 0.00 90 1031.2
20190223110704 29 335 0.0 0.0 0.00 0.00 0.00 90 1031.1
20190223110205 29 335 0.0 0.0 0.00 0.00 0.00 90 1031.1
20190223105704 28 335 0.0 0.0 0.00 0.00 0.00 90 1030.9
20190223105204 29 335 0.0 0.0 0.00 0.00 0.00 89 1030.9
20190223104704 29 335 0.0 0.0 0.00 0.00 0.00 90 1030.8
20190223104204 29 335 0.0 0.0 0.00 0.00 0.00 90 1030.7
20190223103705 28 335 0.0 1.0 0.00 0.00 0.00 89 1030.8
20190223103205 28 335 0.0 2.0 0.00 0.00 0.00 89 1030.9
20190223102704 28 335 1.0 2.0 0.00 0.00 0.00 88 1030.8
20190223102205 29 335 1.0 2.0 0.00 0.00 0.00 88 1030.7
20190223101704 29 335 1.0 1.0 0.00 0.00 0.00 88 1030.8
20190223101204 29 335 0.0 1.0 0.00 0.00 0.00 87 1030.7
20190223100705 29 335 0.0 2.0 0.00 0.00 0.00 87 1030.7
20190223100204 29 335 0.0 2.0 0.00 0.00 0.00 87 1030.7
20190223095705 29 335 0.0 2.0 0.00 0.00 0.00 86 1030.7
20190223095205 29 335 0.0 2.0 0.00 0.00 0.00 86 1030.6
20190223094704 30 335 0.0 2.0 0.00 0.00 0.00 85 1030.6
20190223094204 30 335 0.0 1.0 0.00 0.00 0.00 85 1030.6
20190223093704 30 335 1.0 1.0 0.00 0.00 0.00 85 1030.5
20190223093204 30 335 1.0 2.0 0.00 0.00 0.00 85 1030.3
20190223092704 31 335 1.0 3.0 0.00 0.00 0.00 84 1030.4
20190223092204 31 335 0.0 3.0 0.00 0.00 0.00 84 1030.5
20190223091704 31 335 1.0 3.0 0.00 0.00 0.00 84 1030.3
20190223091205 31 336 1.0 3.0 0.00 0.00 0.00 83 1030.3
20190223090704 31 336 1.0 3.0 0.00 0.00 0.00 83 1030.2
20190223090204 31 305 1.0 4.0 0.00 0.00 0.00 83 1030.2
20190223085704 31 303 1.0 4.0 0.00 0.00 0.00 82 1030.2
20190223085204 32 306 2.0 4.0 0.00 0.00 0.00 82 1030.1
20190223084704 32 311 1.0 4.0 0.00 0.00 0.00 82 1030.1
20190223084204 32 321 1.0 3.0 0.00 0.00 0.00 82 1030.2
20190223083704 32 323 1.0 3.0 0.00 0.00 0.00 81 1030.2
20190223083205 32 326 1.0 4.0 0.00 0.00 0.00 81 1030.1
20190223082704 32 316 2.0 5.0 0.00 0.00 0.00 81 1030.1
20190223082204 32 316 2.0 5.0 0.00 0.00 0.00 80 1030.1
20190223081705 32 319 2.0 5.0 0.00 0.00 0.00 80 1030.2
20190223081204 33 309 2.0 5.0 0.00 0.00 0.00 80 1030.2
20190223080704 33 339 2.0 6.0 0.00 0.00 0.00 80 1030.2
20190223080205 33 327 2.0 6.0 0.00 0.00 0.00 80 1030.4
20190223075704 33 333 2.0 6.0 0.00 0.00 0.00 80 1030.2
20190223075204 33 330 2.0 9.0 0.00 0.00 0.00 80 1030.3
20190223074704 33 311 3.0 9.0 0.00 0.00 0.00 80 1030.4
20190223074204 33 327 2.0 9.0 0.00 0.00 0.00 81 1030.5
20190223073704 33 318 2.0 7.0 0.00 0.00 0.00 81 1030.6
20190223073204 33 351 2.0 8.0 0.00 0.00 0.00 82 1030.7
20190223072704 33 333 3.0 8.0 0.00 0.00 0.00 82 1030.6
20190223072204 32 324 3.0 8.0 0.00 0.00 0.00 83 1030.7
20190223071704 32 316 2.0 6.0 0.00 0.00 0.00 83 1030.6
20190223071204 32 329 2.0 4.0 0.00 0.00 0.00 84 1030.6
20190223070704 32 304 2.0 4.0 0.00 0.00 0.00 84 1030.6
20190223070204 32 327 2.0 8.0 0.00 0.00 0.00 85 1030.5
20190223065704 32 330 2.0 8.0 0.00 0.00 0.00 85 1030.5
20190223065204 31 315 2.0 8.0 0.00 0.00 0.00 86 1030.3
20190223064705 31 329 1.0 4.0 0.00 0.00 0.00 87 1030.4
20190223064204 31 321 1.0 4.0 0.00 0.00 0.00 87 1030.4
20190223063704 31 320 1.0 4.0 0.00 0.00 0.00 87 1030.2
20190223063204 31 321 1.0 4.0 0.00 0.00 0.00 88 1030.1
20190223062704 31 314 1.0 4.0 0.00 0.00 0.00 89 1030.0
20190223062204 30 327 1.0 4.0 0.00 0.00 0.00 90 1030.0
20190223061704 30 332 2.0 4.0 0.00 0.00 0.00 90 1030.0
20190223061205 30 307 2.0 4.0 0.00 0.00 0.00 91 1030.0
20190223060704 29 304 1.0 4.0 0.00 0.00 0.00 92 1030.0
20190223060205 29 313 1.0 3.0 0.00 0.00 0.00 92 1030.0
20190223055704 28 313 1.0 3.0 0.00 0.00 0.00 92 1030.0
20190223055204 28 304 0.0 3.0 0.00 0.00 0.00 92 1030.0
20190223054705 28 165 0.0 0.0 0.00 0.00 0.00 92 1030.0
20190223054204 28 165 0.0 0.0 0.00 0.00 0.00 92 1029.9
20190223053704 28 165 0.0 0.0 0.00 0.00 0.00 92 1029.9
20190223053204 28 165 0.0 0.0 0.00 0.00 0.00 92 1030.0
20190223052704 28 165 0.0 0.0 0.00 0.00 0.00 92 1029.9
20190223052204 28 165 0.0 0.0 0.00 0.00 0.00 92 1029.8
20190223051704 28 165 0.0 0.0 0.00 0.00 0.00 92 1029.5
20190223051214 28 165 0.0 0.0 0.00 0.00 0.00 92 1029.4
20190223050704 28 165 0.0 0.0 0.00 0.00 0.00 92 1029.4
20190223050204 28 165 0.0 0.0 0.00 0.00 0.00 92 1029.3
20190223045704 28 165 0.0 0.0 0.00 0.00 0.00 92 1029.1
20190223045205 28 165 0.0 0.0 0.00 0.00 0.00 92 1028.9
20190223044704 28 165 0.0 0.0 0.00 0.00 0.00 92 1028.7
20190223044204 28 165 0.0 0.0 0.00 0.00 0.00 92 1028.8
20190223043704 28 165 0.0 0.0 0.00 0.00 0.00 92 1028.7
20190223043204 28 165 0.0 0.0 0.00 0.00 0.00 92 1028.6
20190223042704 28 165 0.0 0.0 0.00 0.00 0.00 92 1028.5
20190223042205 28 165 0.0 0.0 0.00 0.00 0.00 92 1028.5
20190223041704 28 165 0.0 0.0 0.00 0.00 0.00 92 1028.5
20190223041205 28 165 0.0 0.0 0.00 0.00 0.00 92 1028.5
20190223040704 28 165 0.0 0.0 0.00 0.00 0.00 92 1028.8
20190223040204 28 165 0.0 0.0 0.00 0.00 0.00 91 1028.6
20190223035706 28 165 0.0 0.0 0.00 0.00 0.00 91 1028.7
20190223035204 28 165 0.0 0.0 0.00 0.00 0.00 91 1028.7
20190223034704 28 165 0.0 0.0 0.00 0.00 0.00 91 1028.7
20190223034204 29 165 0.0 0.0 0.00 0.00 0.00 91 1028.5
20190223033704 29 165 0.0 0.0 0.00 0.00 0.00 91 1028.5
20190223033204 29 165 0.0 0.0 0.00 0.00 0.00 91 1028.4
20190223032704 29 165 0.0 0.0 0.00 0.00 0.00 91 1028.5
20190223032234 29 165 0.0 0.0 0.00 0.00 0.00 91 1028.6
20190223031704 29 165 0.0 0.0 0.00 0.00 0.00 91 1028.6
20190223031204 29 165 0.0 0.0 0.00 0.00 0.00 90 1028.8
20190223030704 29 165 0.0 0.0 0.00 0.00 0.00 90 1028.9
20190223030204 29 165 0.0 0.0 0.00 0.00 0.00 90 1028.8
20190223025704 29 165 0.0 0.0 0.00 0.00 0.00 90 1028.9
20190223025204 30 165 0.0 0.0 0.00 0.00 0.00 90 1028.9
20190223024704 30 165 0.0 0.0 0.00 0.00 0.00 89 1028.8
20190223024204 30 165 0.0 0.0 0.00 0.00 0.00 89 1028.9
20190223023704 31 165 0.0 0.0 0.00 0.00 0.00 89 1028.9
20190223023205 31 165 0.0 0.0 0.00 0.00 0.00 89 1028.7
20190223022704 31 165 0.0 0.0 0.00 0.00 0.00 89 1028.6
20190223022204 31 165 0.0 0.0 0.00 0.00 0.00 89 1028.6
20190223021704 32 165 0.0 1.0 0.00 0.00 0.00 89 1028.5
20190223021204 32 165 0.0 1.0 0.00 0.00 0.00 89 1028.5
20190223020704 32 165 0.0 1.0 0.00 0.00 0.00 89 1028.4
20190223020205 33 165 0.0 1.0 0.00 0.00 0.00 89 1028.4
20190223015704 33 165 0.0 1.0 0.00 0.00 0.00 89 1028.4
20190223015204 33 165 0.0 1.0 0.00 0.00 0.00 89 1028.4
20190223014704 33 165 0.0 1.0 0.00 0.00 0.00 89 1028.3
20190223014205 33 165 0.0 2.0 0.00 0.00 0.00 89 1028.3
20190223013704 33 165 0.0 2.0 0.00 0.00 0.00 89 1028.3
20190223013204 33 165 0.0 2.0 0.00 0.00 0.00 89 1028.3
20190223012704 33 165 0.0 2.0 0.00 0.00 0.00 89 1028.1
20190223012205 33 165 0.0 2.0 0.00 0.00 0.00 88 1028.1
20190223011705 33 165 0.0 2.0 0.00 0.00 0.00 88 1028.0
20190223011204 32 165 0.0 2.0 0.00 0.00 0.00 88 1028.1
20190223010704 32 165 0.0 1.0 0.00 0.00 0.00 87 1028.1
20190223010205 32 165 0.0 1.0 0.00 0.00 0.00 86 1028.0
20190223005704 32 165 0.0 1.0 0.00 0.00 0.00 86 1028.1
20190223005204 32 165 0.0 1.0 0.00 0.00 0.00 85 1028.0
20190223004704 32 165 0.0 1.0 0.00 0.00 0.00 85 1028.1
20190223004204 32 165 0.0 1.0 0.00 0.00 0.00 84 1028.1
20190223003704 32 165 0.0 1.0 0.00 0.00 0.00 84 1028.2
20190223003204 32 165 0.0 1.0 0.00 0.00 0.00 83 1028.0
20190223002704 32 165 0.0 2.0 0.00 0.00 0.00 82 1027.9
20190223002204 32 165 0.0 2.0 0.00 0.00 0.00 82 1027.8
20190223001704 33 165 0.0 2.0 0.00 0.00 0.00 81 1027.7
20190223001205 33 165 0.0 1.0 0.00 0.00 0.00 81 1027.7
20190223000704 33 165 0.0 1.0 0.00 0.00 0.00 80 1027.5
20190223000204 33 165 0.0 1.0 0.00 0.00 0.00 80 1027.5
20190222235704 34 165 0.0 1.0 0.00 0.00 0.00 79 1027.5
20190222235204 34 165 0.0 1.0 0.00 0.00 0.00 79 1027.6
20190222234704 34 165 0.0 2.0 0.00 0.00 0.00 79 1027.6
20190222234204 35 165 0.0 4.0 0.00 0.00 0.00 79 1027.8
20190222233704 35 165 1.0 4.0 0.00 0.00 0.00 79 1027.5
20190222233204 35 165 1.0 4.0 0.00 0.00 0.00 78 1027.4
20190222232704 35 165 1.0 4.0 0.00 0.00 0.00 78 1027.3
20190222232205 35 165 1.0 2.0 0.00 0.00 0.00 78 1027.2
20190222231704 35 165 1.0 2.0 0.00 0.00 0.00 77 1026.9
20190222231204 35 165 1.0 2.0 0.00 0.00 0.00 77 1026.9
20190222230704 35 165 1.0 5.0 0.00 0.00 0.00 77 1026.8
20190222230204 35 165 1.0 5.0 0.00 0.00 0.00 76 1026.8
20190222225704 35 165 2.0 5.0 0.00 0.00 0.00 75 1026.8
20190222225204 35 165 2.0 5.0 0.00 0.00 0.00 74 1026.6
20190222224704 35 171 1.0 5.0 0.00 0.00 0.00 70 1026.4
20190222224204 36 355 0.0 1.0 0.00 0.00 0.00 65 1026.3
20190222223704 36 355 0.0 0.0 0.00 0.00 0.00 64 1026.4
20190222223205 36 355 0.0 1.0 0.00 0.00 0.00 63 1026.3
20190222222704 37 355 0.0 1.0 0.00 0.00 0.00 62 1026.3
20190222222204 37 355 0.0 1.0 0.00 0.00 0.00 62 1026.3
20190222221704 38 355 0.0 1.0 0.00 0.00 0.00 61 1026.4
20190222221204 38 355 0.0 2.0 0.00 0.00 0.00 61 1026.3
20190222220704 38 355 0.0 2.0 0.00 0.00 0.00 60 1026.4
20190222220204 38 355 0.0 3.0 0.00 0.00 0.00 59 1026.3
20190222215704 38 355 1.0 3.0 0.00 0.00 0.00 59 1026.3
20190222215204 39 0 1.0 4.0 0.00 0.00 0.00 59 1026.3
20190222214704 39 16 1.0 5.0 0.00 0.00 0.00 59 1026.2
20190222214204 39 16 2.0 5.0 0.00 0.00 0.00 58 1026.2
20190222213704 39 333 2.0 5.0 0.00 0.00 0.00 57 1026.1
20190222213205 39 329 2.0 5.0 0.00 0.00 0.00 56 1025.9
20190222212704 40 344 2.0 6.0 0.00 0.00 0.00 57 1025.9
20190222212204 40 325 2.0 6.0 0.00 0.00 0.00 56 1025.9
20190222211704 40 331 3.0 8.0 0.00 0.00 0.00 56 1025.8
20190222211204 40 23 3.0 8.0 0.00 0.00 0.00 56 1025.7
20190222210704 40 343 3.0 8.0 0.00 0.00 0.00 56 1025.8
20190222210205 40 22 2.0 6.0 0.00 0.00 0.00 55 1025.6
20190222205704 40 5 2.0 6.0 0.00 0.00 0.00 55 1025.6
20190222205205 41 31 2.0 5.0 0.00 0.00 0.00 55 1025.6
20190222204704 41 15 2.0 8.0 0.00 0.00 0.00 54 1025.6
20190222204205 41 49 3.0 8.0 0.00 0.00 0.00 55 1025.6
20190222203704 41 34 3.0 8.0 0.00 0.00 0.00 56 1025.5
20190222203204 41 355 3.0 8.0 0.00 0.00 0.00 54 1025.4
20190222202703 41 355 2.0 9.0 0.00 0.00 0.00 55 1025.3
20190222202205 41 41 3.0 9.0 0.00 0.00 0.00 54 1025.2
20190222201704 41 16 3.0 9.0 0.00 0.00 0.00 55 1025.2
20190222201204 41 355 3.0 9.0 0.00 0.00 0.00 55 1025.1
20190222200705 41 5 4.0 10.0 0.00 0.00 0.00 55 1025.1
20190222200204 40 323 4.0 10.0 0.00 0.00 0.00 56 1025.1
20190222195704 40 309 4.0 9.0 0.00 0.00 0.00 56 1025.0
20190222195204 41 338 3.0 9.0 0.00 0.00 0.00 56 1025.0
20190222194704 41 5 3.0 11.0 0.00 0.00 0.00 56 1024.9
20190222194204 41 12 4.0 12.0 0.00 0.00 0.00 56 1024.9
20190222193704 40 5 4.0 12.0 0.00 0.00 0.00 55 1024.9
20190222193204 41 355 3.0 12.0 0.00 0.00 0.00 54 1024.8
20190222192705 41 9 4.0 9.0 0.00 0.00 0.00 55 1024.8
20190222192205 41 350 4.0 11.0 0.00 0.00 0.00 56 1024.7
20190222191704 41 338 4.0 11.0 0.00 0.01 0.00 57 1024.7
20190222191204 41 342 5.0 11.0 0.00 0.01 0.00 57 1024.8
20190222190704 41 13 4.0 11.0 0.00 0.01 0.00 57 1024.8
20190222190204 41 9 4.0 10.0 0.00 0.01 0.00 58 1024.8
20190222185704 41 0 3.0 11.0 0.00 0.01 0.00 57 1024.9
20190222185204 41 338 4.0 12.0 0.00 0.01 0.00 57 1024.9
20190222184704 41 21 5.0 13.0 0.00 0.01 0.00 58 1025.0
20190222184205 40 324 5.0 13.0 0.00 0.01 0.00 58 1025.1
20190222183703 40 344 5.0 13.0 0.00 0.01 0.00 58 1025.1
20190222183204 41 344 5.0 13.0 0.00 0.01 0.00 57 1025.1
20190222182704 41 39 3.0 10.0 0.00 0.01 0.00 58 1025.0
20190222182204 42 37 4.0 13.0 0.00 0.02 0.00 57 1025.0
20190222181705 41 333 6.0 13.0 0.00 0.02 0.00 59 1025.0
20190222181205 41 333 5.0 15.0 0.00 0.02 0.00 56 1024.9
20190222180704 40 332 5.0 15.0 0.00 0.02 0.00 57 1025.0
20190222180206 40 336 5.0 15.0 0.00 0.03 0.00 58 1025.1
20190222175704 41 355 5.0 13.0 0.00 0.03 0.00 57 1025.0
20190222175204 40 323 6.0 18.0 0.00 0.03 0.00 58 1025.1
20190222174704 41 323 6.0 18.0 0.00 0.03 0.00 58 1025.1
20190222174205 40 11 7.0 16.0 0.00 0.03 0.00 56 1025.1
20190222173704 40 319 6.0 15.0 0.00 0.04 0.00 57 1025.1
20190222173204 41 329 6.0 15.0 0.00 0.04 0.00 56 1025.2
20190222172704 41 21 6.0 15.0 0.00 0.05 0.00 57 1025.4
20190222172205 40 323 7.0 15.0 0.00 0.05 0.00 57 1025.3
20190222171704 40 0 7.0 15.0 0.00 0.05 0.00 57 1025.3
20190222171204 41 25 6.0 15.0 0.00 0.05 0.00 58 1025.5
20190222170704 42 333 5.0 15.0 0.00 0.06 0.00 58 1025.5
20190222170204 40 283 7.0 15.0 0.00 0.06 0.00 59 1025.4
20190222165704 40 333 6.0 13.0 0.00 0.06 0.00 59 1025.5
20190222165204 41 350 5.0 13.0 0.00 0.07 0.00 60 1025.2